Weather History for Akron Canton, OH

Change the Weather History Date:

Wednesday, December 25, 2013

  Actual Average Record
Temperature  
Mean Temperature 20 °F 28 °F  
Max Temperature 28 °F 34 °F 64 °F (1982)
Min Temperature 11 °F 21 °F -14 °F (1983)
Degree Days  
Heating Degree Days 45 37  
Month to date heating degree days 828 846  
Since 1 July heating degree days 2078 2105  
Cooling Degree Days 0 0  
Month to date cooling degree days 0 0  
Year to date cooling degree days 829 652  
Moisture  
Dew Point 11 °F    
Average Humidity 70    
Maximum Humidity 88    
Minimum Humidity 51    
Precipitation  
Precipitation 0.00 in 0.09 in 0.95 in (1964)
Month to date precipitation 3.25 2.32  
Year to date precipitation 41.95 39.10  
Snow  
Snow 0.00 in 0.40 in - ()
Month to date snowfall 10.9 8.0  
Since 1 July snowfall 21.6 11.4  
Snow Depth 1.00 in    
Sea Level Pressure  
Sea Level Pressure 30.39 in    
Wind  
Wind Speed 7 mph (South)    
Max Wind Speed 14 mph    
Max Gust Speed 14 mph    
Visibility 10 miles    
Events      
T = Trace of Precipitation, MM = Missing Value Source: NWS Daily Summary

Daily Weather History Graph

Daily Weather History Graph

Search for Another Location

Airport:

Trip Planner

Search our weather history database for the weather conditions in past years. The results will help you decide how hot, cold, wet, or windy it might be!

Date:

Astronomy

Dec. 25, 2013 Rise Set
Actual Time 7:48 AM EST 5:03 PM EST
Civil Twilight 7:17 AM EST 5:34 PM EST
Nautical Twilight 6:43 AM EST 6:09 PM EST
Astronomical Twilight 6:09 AM EST 6:42 PM EST
Moon 12:12 AM EST (12/25) 12:08 PM EST (12/25)
Length of Visible Light 10h 16m
Length of Day
9h 14m
Waning Gibbous, 49% of the Moon is Illuminated
Dec 25
Waning Gibbous
Jan 1
New
Jan 7
First Quarter
Jan 15
Full
Jan 24
Last Quarter

Hourly Weather History & Observations

Time (EST) Temp. Windchill Dew Point Humidity Pressure Visibility Wind Dir Wind Speed Gust Speed Precip Events Conditions
12:51 AM 12.7 °F 6.7 °F 8.1 °F 82% 30.53 in 10.0 mi SSW 3.5 mph - N/A   Mostly Cloudy
1:51 AM 11.8 °F 5.7 °F 8.1 °F 85% 30.51 in 10.0 mi SSW 3.5 mph - N/A   Mostly Cloudy
2:51 AM 11.8 °F 5.7 °F 8.1 °F 85% 30.53 in 10.0 mi SSW 3.5 mph - N/A   Partly Cloudy
3:51 AM 10.8 °F - 7.2 °F 85% 30.52 in 10.0 mi Calm Calm - N/A   Clear
4:51 AM 10.8 °F - 7.2 °F 85% 30.50 in 10.0 mi Calm Calm - N/A   Partly Cloudy
5:51 AM 10.8 °F - 7.2 °F 85% 30.51 in 10.0 mi Calm Calm - N/A   Scattered Clouds
6:51 AM 12.0 °F - 7.2 °F 81% 30.51 in 10.0 mi Calm Calm - N/A   Overcast
7:51 AM 12.0 °F 5.9 °F 7.2 °F 81% 30.50 in 10.0 mi South 3.5 mph - N/A   Overcast
8:51 AM 15.3 °F 3.5 °F 7.3 °F 71% 30.46 in 10.0 mi SSE 9.2 mph - N/A   Overcast
9:51 AM 17.1 °F 4.3 °F 10.9 °F 77% 30.46 in 10.0 mi SSE 11.5 mph - N/A   Mostly Cloudy
10:51 AM 18.7 °F 6.3 °F 11.1 °F 72% 30.44 in 10.0 mi South 11.5 mph - N/A   Overcast
11:51 AM 20.8 °F 9.0 °F 11.1 °F 66% 30.41 in 10.0 mi South 11.5 mph - N/A   Mostly Cloudy
12:51 PM 22.5 °F 11.1 °F 11.8 °F 64% 30.35 in 10.0 mi South 11.5 mph - N/A   Overcast
1:51 PM 24.6 °F 14.4 °F 11.8 °F 58% 30.30 in 10.0 mi SSE 10.4 mph - N/A   Overcast
2:51 PM 24.6 °F 16.7 °F 11.8 °F 58% 30.32 in 10.0 mi SW 6.9 mph - N/A   Overcast
3:51 PM 27.0 °F 19.5 °F 11.5 °F 52% 30.30 in 10.0 mi SSW 6.9 mph - N/A   Overcast
4:51 PM 27.3 °F 19.9 °F 11.8 °F 52% 30.30 in 10.0 mi South 6.9 mph - N/A   Overcast
5:51 PM 27.0 °F 18.0 °F 12.0 °F 53% 30.28 in 10.0 mi South 9.2 mph - N/A   Overcast
6:51 PM 27.1 °F 18.2 °F 14.4 °F 59% 30.28 in 10.0 mi SSW 9.2 mph - N/A   Overcast
7:51 PM 27.7 °F 19.6 °F 16.5 °F 63% 30.27 in 10.0 mi SSW 8.1 mph - N/A   Overcast
8:51 PM 28.0 °F 20.0 °F 17.4 °F 64% 30.25 in 10.0 mi SSW 8.1 mph - N/A   Overcast
9:51 PM 27.5 °F 20.2 °F 16.5 °F 63% 30.23 in 10.0 mi SSW 6.9 mph - N/A   Overcast
10:51 PM 27.9 °F 20.6 °F 17.4 °F 65% 30.22 in 10.0 mi SSW 6.9 mph - N/A   Overcast
11:51 PM 28.0 °F 20.8 °F 19.2 °F 70% 30.19 in 10.0 mi SSW 6.9 mph - N/A   Overcast